Погода в Бороке Сулежском

Россия / Тверская область     57°54′35″N   36°50′20″E
темп.,
°C
ветер,
м/с
пор.,
м/с
влажн.,
%
обл.,
%
осадки,
мм/ч
давл.,
гПа
погр.,
м
7 мая, пт
пт700:00+6ююз61285100 0.1 10031108
03:00+6юз61184100 0.2 1004988
06:00+5юз5108343 0.0 1005741
09:00+8юз796687 0.1 10061457
12:00+10зюз71048100 0.1 10072360
15:00+11юз7104572 0.3 10082377
18:00+11юз59556 0.1 10081595
21:00+7ю497253 0.1 1009155
8 мая, сб
сб800:00+5ююв41080100 0.0 1009211
03:00+6юв51277100 0.0 1008313
06:00+7ююв71482100 0.3 10071089
09:00+7ююв81491100 1.3 1006985
12:00+8ююв61191100 0.6 1005765
15:00+8ююв5891100 0.8 1005554
18:00+7юв1297100 2.0 1005150
21:00+6ссз61191100 4.3 1006567
9 мая, вс
вс900:00+5ссз5119243 0.1 1006582
03:00+4ссз61187100 0.1 1008795
06:00+3ссз71188100 0.0 1010950
09:00+5ссз61181100 0.0 1012936
12:00+8ссз71063100 0.1 10141456
15:00+12ссз7104175 0.1 10152430
18:00+11сз58495 0.0 10181512
21:00+6сз36660 0.0 102188
10 мая, пн
пн1000:00+4сз336826 0.0 102327
03:00+2з227114 0.0 102610
06:00+4ююз237115 0.0 102762
09:00+10ююз45555 0.0 1028480
12:00+14юз5645100 0.0 10281526
15:00+13юз4655100 0.0 1028983
18:00+15юз355931 0.0 1028856
21:00+10ю33765 0.0 102935
11 мая, вт
вт1100:00+8ююз338178 0.0 103036
03:00+7ююз338540 0.0 103033
06:00+8ююз2584100 0.0 1031106
09:00+14ююз346597 0.0 1031382
12:00+17ю3454100 0.0 1031934
15:00+19ююв2350100 0.0 10301102
18:00+18ююв34625 0.0 1029742
21:00+12ююв34805 0.0 102957